FW4387 Weather Reports


time (UTC)temp
C
wind
direction
speed
KPH
gust
KPH
rain 1hr
cm
rain 24hr
cm
rain mn
cm
humidity
%
barometer
mb
20260507003006 11 0.0 0.0 0.00 1.19 0.00 63 1012.2
20260507001506 11 0.0 0.0 0.00 1.19 0.00 62 1012.2
20260507000006 12 0.0 0.0 0.00 1.19 0.00 59 1011.9
20260506234506 12 0.0 0.0 0.00 1.19 0.00 58 1011.8
20260506233005 12 0.0 0.0 0.00 1.24 0.00 57 1011.6
20260506231504 12 0.0 0.0 0.00 1.24 0.00 59 1012.1
20260506230006 12 0.0 0.0 0.00 1.24 0.00 59 1012.1
20260506224504 12 0.0 0.0 0.00 1.24 0.00 58 1012.1
20260506223004 12 0.0 0.0 0.00 1.42 0.00 59 1012.3
20260506221502 13 0.0 0.0 0.00 1.42 0.00 56 1012.3
20260506214600 13 0.0 0.0 0.00 1.42 0.00 56 1011.6
20260506213101 13 0.0 0.0 0.00 1.42 0.00 58 1011.5
20260506211558 13 0.0 0.0 0.00 1.60 0.00 57 1011.4
20260506210058 13 0.0 0.0 0.00 1.60 0.00 59 1011.4
20260506204600 13 0.0 0.0 0.00 1.60 0.00 58 1011.4
20260506203057 13 0.0 0.0 0.00 1.60 0.00 58 1011.4
20260506201557 13 0.0 0.0 0.00 1.60 0.00 56 1011.2
20260506200059 13 0.0 0.0 0.00 1.60 0.00 56 1011.3
20260506194553 13 0.0 0.0 0.00 1.60 0.00 57 1011.0
20260506193052 13 0.0 0.0 0.00 1.60 0.00 57 1011.1
20260506191553 15 0.0 0.0 0.00 1.60 0.00 58 1011.0
20260506190054 15 0.0 0.0 0.00 1.60 0.00 57 1011.0
20260506184552 15 0.0 0.0 0.00 1.60 0.00 55 1010.9
20260506183050 15 0.0 0.0 0.00 1.60 0.00 57 1010.9
20260506181548 15 0.0 0.0 0.00 1.60 0.00 57 1011.0
20260506180048 15 0.0 0.0 0.00 1.60 0.00 59 1011.0
20260506174547 15 0.0 0.0 0.00 1.60 0.00 59 1011.0
20260506173121 14 0.0 0.0 0.00 1.60 0.00 61 1011.0
20260506171544 14 0.0 0.0 0.00 1.60 0.00 62 1010.9
20260506170046 14 0.0 0.0 0.00 1.60 0.00 61 1011.0
20260506164548 14 0.0 0.0 0.00 1.60 0.00 66 1010.9
20260506163042 13 0.0 0.0 0.00 1.60 0.00 65 1011.1
20260506161538 13 0.0 0.0 0.00 1.60 0.00 67 1011.1
20260506160035 13 0.0 0.0 0.00 1.60 0.00 70 1010.8
20260506154533 12 0.0 0.0 0.00 1.60 0.00 71 1010.6
20260506153030 12 0.0 0.0 0.00 1.60 0.00 74 1010.5
20260506151528 11 0.0 0.0 0.00 1.60 0.00 74 1010.4
20260506150024 11 0.0 0.0 0.00 1.60 0.00 79 1010.0
20260506144522 10 0.0 0.0 0.00 1.60 0.00 80 1010.2
20260506143025 10 0.0 0.0 0.00 1.60 0.00 82 1010.2
20260506141518 10 0.0 0.0 0.00 1.60 0.00 85 1009.8
20260506140015 9 0.0 0.0 0.00 1.60 0.00 87 1009.4
20260506134513 8 0.0 0.0 0.00 1.60 0.00 89 1009.5
20260506133009 8 0.0 0.0 0.00 1.60 0.00 92 1009.1
20260506131609 8 0.0 0.0 0.00 1.60 0.00 93 1009.0
20260506130005 8 0.0 0.0 0.00 1.60 0.00 94 1009.2
20260506124504 7 0.0 0.0 0.00 1.60 0.00 94 1009.1
20260506123101 8 0.0 0.0 0.00 1.60 0.00 95 1008.6
20260506121559 8 0.0 0.0 0.00 1.60 1.60 95 1008.2
20260506120107 7 0.0 0.0 0.00 1.60 1.60 95 1008.2
20260506114558 7 0.0 0.0 0.00 1.60 1.60 94 1008.2
20260506113058 7 0.0 0.0 0.00 1.60 1.60 94 1008.3
20260506111554 7 0.0 0.0 0.00 1.60 1.60 94 1007.0
20260506110057 7 0.0 0.0 0.03 1.60 1.60 94 1006.8
20260506104556 7 0.0 0.0 0.03 1.60 1.60 95 1006.9
20260506103057 7 0.0 0.0 0.03 1.60 1.60 95 1007.1
20260506101559 7 0.0 0.0 0.03 1.60 1.60 95 1006.8
20260506100109 7 0.0 0.0 0.03 1.57 1.57 94 1006.1
20260506094551 7 0.0 0.0 0.03 1.57 1.57 94 1006.2
20260506093051 7 0.0 0.0 0.08 1.57 1.57 94 1005.8
20260506091546 8 0.0 0.0 0.10 1.57 1.57 94 1006.4
20260506090046 8 0.0 0.0 0.13 1.57 1.57 94 1005.6
20260506084607 8 0.0 0.0 0.10 1.55 1.55 94 1006.2
20260506083045 8 0.0 0.0 0.08 1.52 1.52 94 1006.1
20260506081550 8 0.0 0.0 0.05 1.45 1.45 94 1005.8
20260506073047 8 0.0 0.0 0.15 1.42 1.42 94 1005.3
20260506071541 8 0.0 0.0 0.18 1.42 1.42 94 1005.4
20260506061536 9 0.0 0.0 0.15 1.24 1.24 94 1005.6
20260506044608 10 0.0 0.0 0.03 1.07 1.07 94 1005.8
20260506043032 10 0.0 0.0 0.05 1.07 1.07 94 1005.5
20260506041529 10 0.0 0.0 0.08 1.07 1.07 94 1005.7
20260506040030 10 0.0 0.0 0.20 1.07 1.07 94 1005.8
20260506034551 10 0.0 0.0 0.23 1.07 1.07 94 1006.0
20260506033024 11 0.0 0.0 0.20 1.02 1.02 94 1006.1
20260506031521 12 0.0 0.0 0.23 0.99 0.99 94 1006.3
20260506030016 13 0.0 0.0 0.20 0.89 0.89 94 1006.5
20260506024515 15 0.0 0.0 0.20 0.84 0.84 94 1006.5
20260506023014 15 0.0 0.0 0.23 0.81 0.81 95 1005.9
20260506021514 15 0.0 0.0 0.20 0.76 0.76 95 1006.0
20260506020014 15 0.0 0.0 0.20 0.71 0.71 95 1006.1
20260506014517 15 0.0 0.0 0.13 0.66 0.66 95 1006.0
20260506013013 15 0.0 0.0 0.10 0.61 0.61 95 1005.8
20260506011515 15 0.0 0.0 0.08 0.56 0.56 95 1005.7
20260506010013 15 0.0 0.0 0.10 0.56 0.56 95 1005.4
20260506004526 15 0.0 0.0 0.10 0.53 0.53 95 1005.6